Time,TemperatureF,DewpointF,PressureIn,WindDirection,WindDirectionDegrees,WindSpeedMPH,WindSpeedGustMPH,Humidity,HourlyPrecipIn,Conditions,Clouds,dailyrainin,SoftwareType,DateUTC
2013-06-02 00:00:00,54.1,52.4,30.06,NW,307,1.0,2.0,94,0.00,,,0.00,Wunderground v.1.15,2013-06-02 07:00:00,
2013-06-02 00:10:00,54.0,52.6,30.06,NW,307,1.0,1.0,95,0.00,,,0.00,Wunderground v.1.15,2013-06-02 07:10:00,
2013-06-02 00:15:00,54.0,52.6,30.06,NW,307,0.0,1.0,95,0.00,,,0.00,Wunderground v.1.15,2013-06-02 07:15:00,
2013-06-02 00:25:00,53.8,52.4,30.06,NW,307,0.0,2.0,95,0.00,,,0.00,Wunderground v.1.15,2013-06-02 07:25:00,
2013-06-02 00:30:00,53.8,52.7,30.06,NW,307,0.0,0.0,96,0.00,,,0.00,Wunderground v.1.15,2013-06-02 07:30:00,
2013-06-02 00:35:00,53.7,52.6,30.06,NW,308,0.0,1.0,96,0.00,,,0.00,Wunderground v.1.15,2013-06-02 07:35:00,
2013-06-02 00:45:00,53.6,52.5,30.06,WNW,294,0.0,0.0,96,0.00,,,0.00,Wunderground v.1.15,2013-06-02 07:45:00,
2013-06-02 00:55:00,53.6,52.5,30.06,WNW,294,0.0,0.0,96,0.00,,,0.00,Wunderground v.1.15,2013-06-02 07:55:00,
2013-06-02 01:00:00,53.6,52.5,30.06,WNW,294,0.0,0.0,96,0.00,,,0.00,Wunderground v.1.15,2013-06-02 08:00:00,
2013-06-02 01:10:00,53.5,52.7,30.05,WNW,294,0.0,0.0,97,0.00,,,0.00,Wunderground v.1.15,2013-06-02 08:10:00,
2013-06-02 01:20:00,53.5,52.7,30.05,WNW,294,0.0,0.0,97,0.00,,,0.01,Wunderground v.1.15,2013-06-02 08:20:00,
2013-06-02 01:30:00,53.5,52.7,30.05,WNW,294,0.0,0.0,97,0.00,,,0.01,Wunderground v.1.15,2013-06-02 08:30:00,
2013-06-02 01:40:00,53.4,52.6,30.05,WNW,294,0.0,0.0,97,0.00,,,0.01,Wunderground v.1.15,2013-06-02 08:40:00,
2013-06-02 01:50:00,53.5,52.7,30.05,WNW,294,0.0,0.0,97,0.00,,,0.01,Wunderground v.1.15,2013-06-02 08:50:00,
2013-06-02 02:00:00,53.4,52.6,30.05,WNW,294,0.0,0.0,97,0.00,,,0.01,Wunderground v.1.15,2013-06-02 09:00:00,
2013-06-02 02:10:00,53.5,52.7,30.04,WNW,294,0.0,0.0,97,0.00,,,0.01,Wunderground v.1.15,2013-06-02 09:10:00,
2013-06-02 02:20:00,53.4,52.8,30.04,WNW,294,0.0,0.0,98,0.00,,,0.01,Wunderground v.1.15,2013-06-02 09:20:00,
2013-06-02 02:30:00,53.5,52.9,30.04,WNW,294,0.0,0.0,98,0.00,,,0.01,Wunderground v.1.15,2013-06-02 09:30:00,
2013-06-02 02:35:00,53.5,52.9,30.04,WNW,294,0.0,0.0,98,0.00,,,0.01,Wunderground v.1.15,2013-06-02 09:35:00,
2013-06-02 02:45:00,53.5,52.9,30.04,WNW,294,0.0,0.0,98,0.00,,,0.01,Wunderground v.1.15,2013-06-02 09:45:00,
2013-06-02 02:50:00,53.5,52.9,30.04,WNW,294,0.0,0.0,98,0.00,,,0.01,Wunderground v.1.15,2013-06-02 09:50:00,
2013-06-02 03:00:00,53.5,52.9,30.04,WNW,294,0.0,0.0,98,0.00,,,0.02,Wunderground v.1.15,2013-06-02 10:00:00,
2013-06-02 03:10:00,53.5,52.9,30.04,WNW,294,0.0,0.0,98,0.00,,,0.02,Wunderground v.1.15,2013-06-02 10:10:00,
2013-06-02 03:15:00,53.4,52.8,30.04,WNW,294,0.0,0.0,98,0.00,,,0.02,Wunderground v.1.15,2013-06-02 10:15:00,
2013-06-02 03:25:00,53.4,52.8,30.04,WNW,294,0.0,0.0,98,0.00,,,0.02,Wunderground v.1.15,2013-06-02 10:25:00,
2013-06-02 03:35:00,53.4,52.8,30.03,WNW,294,0.0,0.0,98,0.00,,,0.02,Wunderground v.1.15,2013-06-02 10:35:00,
2013-06-02 03:45:00,53.3,52.8,30.03,WNW,294,0.0,0.0,98,0.00,,,0.02,Wunderground v.1.15,2013-06-02 10:45:00,
2013-06-02 03:55:00,53.3,52.8,30.03,WNW,294,0.0,1.0,98,0.00,,,0.02,Wunderground v.1.15,2013-06-02 10:55:00,
2013-06-02 04:00:00,53.3,52.8,30.03,NNW,339,0.0,0.0,98,0.00,,,0.03,Wunderground v.1.15,2013-06-02 11:00:00,
2013-06-02 04:10:00,53.3,52.8,30.03,WNW,302,0.0,0.0,98,0.00,,,0.03,Wunderground v.1.15,2013-06-02 11:10:00,
2013-06-02 04:20:00,53.2,52.7,30.03,North,350,0.0,0.0,98,0.00,,,0.03,Wunderground v.1.15,2013-06-02 11:20:00,
2013-06-02 04:30:00,53.1,52.6,30.03,NNW,328,0.0,0.0,98,0.00,,,0.03,Wunderground v.1.15,2013-06-02 11:30:00,
2013-06-02 04:40:00,53.0,52.5,30.03,NW,305,0.0,1.0,98,0.00,,,0.03,Wunderground v.1.15,2013-06-02 11:40:00,
2013-06-02 04:50:00,52.8,52.3,30.03,NW,306,1.0,1.0,98,0.00,,,0.03,Wunderground v.1.15,2013-06-02 11:50:00,
2013-06-02 05:00:00,52.7,52.2,30.03,NW,307,1.0,1.0,98,0.00,,,0.03,Wunderground v.1.15,2013-06-02 12:00:00,
2013-06-02 05:10:00,52.6,52.1,30.03,NW,316,1.0,3.0,98,0.00,,,0.03,Wunderground v.1.15,2013-06-02 12:10:00,
2013-06-02 05:20:00,52.5,52.0,30.03,North,5,0.0,0.0,98,0.00,,,0.03,Wunderground v.1.15,2013-06-02 12:20:00,
2013-06-02 05:30:00,52.5,52.0,30.03,NNW,333,0.0,0.0,98,0.00,,,0.03,Wunderground v.1.15,2013-06-02 12:30:00,
2013-06-02 05:35:00,52.5,52.0,30.03,NW,324,1.0,1.0,98,0.00,,,0.03,Wunderground v.1.15,2013-06-02 12:35:00,
2013-06-02 05:45:00,52.5,52.0,30.04,WNW,303,0.0,1.0,98,0.00,,,0.03,Wunderground v.1.15,2013-06-02 12:45:00,
2013-06-02 05:55:00,52.5,52.0,30.04,NW,318,0.0,1.0,98,0.00,,,0.03,Wunderground v.1.15,2013-06-02 12:55:00,
2013-06-02 06:00:00,52.5,52.0,30.04,NW,311,1.0,1.0,98,0.00,,,0.03,Wunderground v.1.15,2013-06-02 13:00:00,
2013-06-02 06:10:00,52.5,52.0,30.04,WNW,296,1.0,2.0,98,0.00,,,0.04,Wunderground v.1.15,2013-06-02 13:10:00,
2013-06-02 06:20:00,52.5,52.0,30.04,WNW,302,1.0,2.0,98,0.05,,,0.05,Wunderground v.1.15,2013-06-02 13:20:00,
2013-06-02 06:25:00,52.5,52.0,30.04,NNW,338,1.0,3.0,98,0.05,,,0.05,Wunderground v.1.15,2013-06-02 13:25:00,
2013-06-02 06:35:00,52.3,51.8,30.04,West,263,2.0,3.0,98,0.04,,,0.06,Wunderground v.1.15,2013-06-02 13:35:00,
2013-06-02 06:45:00,52.2,51.7,30.04,NW,304,2.0,2.0,98,0.04,,,0.06,Wunderground v.1.15,2013-06-02 13:45:00,
2013-06-02 06:55:00,52.2,51.7,30.04,NW,306,2.0,2.0,98,0.00,,,0.06,Wunderground v.1.15,2013-06-02 13:55:00,
2013-06-02 07:00:00,52.3,51.8,30.04,WNW,296,1.0,1.0,98,0.00,,,0.06,Wunderground v.1.15,2013-06-02 14:00:00,
2013-06-02 07:10:00,52.4,51.9,30.04,West,274,1.0,4.0,98,0.00,,,0.07,Wunderground v.1.15,2013-06-02 14:10:00,
2013-06-02 07:20:00,52.5,52.2,30.04,NW,305,1.0,1.0,99,0.00,,,0.07,Wunderground v.1.15,2013-06-02 14:20:00,
2013-06-02 07:30:00,52.6,52.3,30.04,NW,319,1.0,2.0,99,0.00,,,0.07,Wunderground v.1.15,2013-06-02 14:30:00,
2013-06-02 07:35:00,52.7,52.4,30.04,NW,318,2.0,2.0,99,0.00,,,0.07,Wunderground v.1.15,2013-06-02 14:35:00,
2013-06-02 07:45:00,52.9,52.6,30.04,WNW,296,1.0,1.0,99,0.00,,,0.07,Wunderground v.1.15,2013-06-02 14:45:00,
2013-06-02 07:55:00,53.0,52.7,30.05,NW,326,1.0,1.0,99,0.00,,,0.07,Wunderground v.1.15,2013-06-02 14:55:00,
2013-06-02 08:00:00,53.1,52.8,30.05,NNW,342,1.0,1.0,99,0.00,,,0.07,Wunderground v.1.15,2013-06-02 15:00:00,
2013-06-02 08:10:00,53.2,52.9,30.05,NNE,26,1.0,1.0,99,0.00,,,0.07,Wunderground v.1.15,2013-06-02 15:10:00,
2013-06-02 08:20:00,53.6,53.3,30.05,NE,37,1.0,2.0,99,0.00,,,0.07,Wunderground v.1.15,2013-06-02 15:20:00,
2013-06-02 08:25:00,53.8,53.5,30.04,WNW,297,1.0,1.0,99,0.00,,,0.07,Wunderground v.1.15,2013-06-02 15:25:00,
2013-06-02 08:35:00,53.9,53.6,30.04,NW,306,1.0,1.0,99,0.00,,,0.07,Wunderground v.1.15,2013-06-02 15:35:00,
2013-06-02 08:45:00,54.3,54.0,30.04,NNW,338,2.0,2.0,99,0.00,,,0.07,Wunderground v.1.15,2013-06-02 15:45:00,
2013-06-02 08:55:00,54.6,54.0,30.04,NNW,344,1.0,1.0,98,0.00,,,0.07,Wunderground v.1.15,2013-06-02 15:55:00,
2013-06-02 09:00:00,54.9,54.3,30.04,NNW,331,2.0,2.0,98,0.00,,,0.07,Wunderground v.1.15,2013-06-02 16:00:00,
2013-06-02 09:10:00,54.8,54.0,30.05,NNW,338,1.0,2.0,97,0.00,,,0.07,Wunderground v.1.15,2013-06-02 16:10:00,
2013-06-02 09:20:00,54.9,54.1,30.05,NNW,348,3.0,3.0,97,0.00,,,0.07,Wunderground v.1.15,2013-06-02 16:20:00,
2013-06-02 09:30:00,55.3,54.5,30.04,NW,321,1.0,2.0,97,0.00,,,0.07,Wunderground v.1.15,2013-06-02 16:30:00,
2013-06-02 09:35:00,55.6,54.8,30.05,WNW,298,2.0,2.0,97,0.00,,,0.07,Wunderground v.1.15,2013-06-02 16:35:00,
2013-06-02 09:45:00,56.0,54.9,30.04,NW,305,2.0,3.0,96,0.00,,,0.07,Wunderground v.1.15,2013-06-02 16:45:00,
2013-06-02 09:55:00,56.2,55.1,30.04,WNW,296,2.0,4.0,96,0.00,,,0.07,Wunderground v.1.15,2013-06-02 16:55:00,
2013-06-02 10:00:00,56.3,54.3,30.04,WNW,293,2.0,2.0,93,0.00,,,0.07,Wunderground v.1.15,2013-06-02 17:00:00,
2013-06-02 10:10:00,56.7,55.3,30.04,NW,308,2.0,5.0,95,0.00,,,0.07,Wunderground v.1.15,2013-06-02 17:10:00,
2013-06-02 10:20:00,56.9,55.5,30.04,West,277,3.0,8.0,95,0.00,,,0.07,Wunderground v.1.15,2013-06-02 17:20:00,
2013-06-02 10:30:00,56.9,54.9,30.04,NW,323,3.0,6.0,93,0.00,,,0.07,Wunderground v.1.15,2013-06-02 17:30:00,
2013-06-02 10:40:00,57.3,54.7,30.04,WNW,300,2.0,4.0,91,0.00,,,0.07,Wunderground v.1.15,2013-06-02 17:40:00,
2013-06-02 10:50:00,58.0,55.7,30.04,NE,34,2.0,2.0,92,0.00,,,0.07,Wunderground v.1.15,2013-06-02 17:50:00,
2013-06-02 11:00:00,57.9,55.0,30.04,NNE,25,2.0,2.0,90,0.00,,,0.07,Wunderground v.1.15,2013-06-02 18:00:00,
2013-06-02 11:10:00,58.2,55.6,30.04,NW,305,2.0,4.0,91,0.00,,,0.07,Wunderground v.1.15,2013-06-02 18:10:00,
2013-06-02 11:20:00,58.8,55.6,30.04,East,83,2.0,2.0,89,0.00,,,0.07,Wunderground v.1.15,2013-06-02 18:20:00,
2013-06-02 11:30:00,59.6,56.0,30.03,North,360,2.0,4.0,88,0.00,,,0.07,Wunderground v.1.15,2013-06-02 18:30:00,
2013-06-02 11:35:00,59.9,56.0,30.03,WNW,295,2.0,4.0,87,0.00,,,0.07,Wunderground v.1.15,2013-06-02 18:35:00,
2013-06-02 11:45:00,60.9,56.7,30.03,WNW,302,3.0,5.0,86,0.00,,,0.07,Wunderground v.1.15,2013-06-02 18:45:00,
2013-06-02 11:55:00,61.9,58.6,30.03,North,355,4.0,4.0,89,0.00,,,0.07,Wunderground v.1.15,2013-06-02 18:55:00,
2013-06-02 12:00:00,61.8,56.2,30.03,NW,305,4.0,4.0,82,0.00,,,0.07,Wunderground v.1.15,2013-06-02 19:00:00,
2013-06-02 12:10:00,61.8,56.9,30.02,NE,49,2.0,2.0,84,0.00,,,0.07,Wunderground v.1.15,2013-06-02 19:10:00,
2013-06-02 12:20:00,62.2,56.6,30.02,WSW,251,4.0,4.0,82,0.00,,,0.07,Wunderground v.1.15,2013-06-02 19:20:00,
2013-06-02 12:30:00,63.6,57.7,30.02,NW,306,4.0,5.0,81,0.00,,,0.07,Wunderground v.1.15,2013-06-02 19:30:00,
2013-06-02 12:35:00,64.2,58.9,30.02,West,265,4.0,5.0,83,0.00,,,0.07,Wunderground v.1.15,2013-06-02 19:35:00,
2013-06-02 12:45:00,64.1,57.8,30.01,North,355,4.0,4.0,80,0.00,,,0.07,Wunderground v.1.15,2013-06-02 19:45:00,
2013-06-02 12:55:00,64.3,58.3,30.01,NW,315,4.0,4.0,81,0.00,,,0.07,Wunderground v.1.15,2013-06-02 19:55:00,
2013-06-02 13:00:00,65.4,59.8,30.01,NW,304,4.0,6.0,82,0.00,,,0.07,Wunderground v.1.15,2013-06-02 20:00:00,
2013-06-02 13:10:00,65.1,58.4,30.01,West,259,5.0,5.0,79,0.00,,,0.07,Wunderground v.1.15,2013-06-02 20:10:00,
2013-06-02 13:20:00,65.2,58.9,30.01,NNE,26,5.0,5.0,80,0.00,,,0.07,Wunderground v.1.15,2013-06-02 20:20:00,
2013-06-02 13:30:00,66.4,57.9,30.01,WNW,287,5.0,8.0,74,0.00,,,0.07,Wunderground v.1.15,2013-06-02 20:30:00,
2013-06-02 13:35:00,66.1,58.3,30.01,North,355,5.0,8.0,76,0.00,,,0.07,Wunderground v.1.15,2013-06-02 20:35:00,
2013-06-02 13:45:00,66.8,59.4,30.01,WNW,282,3.0,6.0,77,0.00,,,0.07,Wunderground v.1.15,2013-06-02 20:45:00,
2013-06-02 13:55:00,65.4,58.0,30.01,North,5,5.0,7.0,77,0.00,,,0.07,Wunderground v.1.15,2013-06-02 20:55:00,
2013-06-02 14:00:00,65.9,58.5,30.01,NW,317,4.0,7.0,77,0.00,,,0.07,Wunderground v.1.15,2013-06-02 21:00:00,
2013-06-02 14:10:00,65.6,57.5,30.01,NNW,327,6.0,6.0,75,0.00,,,0.07,Wunderground v.1.15,2013-06-02 21:10:00,
2013-06-02 14:20:00,65.4,57.3,30.01,NNE,32,6.0,6.0,75,0.00,,,0.07,Wunderground v.1.15,2013-06-02 21:20:00,
2013-06-02 14:30:00,65.2,57.8,30.01,WSW,239,7.0,7.0,77,0.00,,,0.07,Wunderground v.1.15,2013-06-02 21:30:00,
2013-06-02 14:35:00,64.9,56.4,30.02,West,275,8.0,11.0,74,0.00,,,0.07,Wunderground v.1.15,2013-06-02 21:35:00,
2013-06-02 14:45:00,64.9,58.2,30.02,West,275,7.0,9.0,79,0.00,,,0.07,Wunderground v.1.15,2013-06-02 21:45:00,
2013-06-02 14:55:00,64.2,56.5,30.02,NW,315,7.0,11.0,76,0.00,,,0.07,Wunderground v.1.15,2013-06-02 21:55:00,
2013-06-02 15:00:00,64.1,56.7,30.02,West,276,8.0,10.0,77,0.00,,,0.07,Wunderground v.1.15,2013-06-02 22:00:00,
2013-06-02 15:10:00,64.0,56.6,30.02,NW,307,9.0,15.0,77,0.00,,,0.07,Wunderground v.1.15,2013-06-02 22:10:00,
2013-06-02 15:20:00,64.8,57.4,30.02,NE,36,5.0,7.0,77,0.00,,,0.07,Wunderground v.1.15,2013-06-02 22:20:00,
2013-06-02 15:25:00,64.0,56.3,30.02,West,275,7.0,10.0,76,0.00,,,0.07,Wunderground v.1.15,2013-06-02 22:25:00,
2013-06-02 15:35:00,62.8,55.1,30.02,ENE,65,10.0,10.0,76,0.00,,,0.07,Wunderground v.1.15,2013-06-02 22:35:00,
2013-06-02 15:45:00,63.9,57.6,30.02,West,281,5.0,6.0,80,0.00,,,0.07,Wunderground v.1.15,2013-06-02 22:45:00,
2013-06-02 15:55:00,63.5,56.2,30.01,NNW,333,7.0,7.0,77,0.00,,,0.07,Wunderground v.1.15,2013-06-02 22:55:00,
2013-06-02 16:00:00,63.2,54.4,30.02,West,272,7.0,14.0,73,0.00,,,0.07,Wunderground v.1.15,2013-06-02 23:00:00,
2013-06-02 16:10:00,63.2,55.1,30.02,NW,317,6.0,7.0,75,0.00,,,0.07,Wunderground v.1.15,2013-06-02 23:10:00,
2013-06-02 16:20:00,63.0,54.9,30.02,NW,315,6.0,6.0,75,0.00,,,0.07,Wunderground v.1.15,2013-06-02 23:20:00,
2013-06-02 16:30:00,62.6,54.2,30.02,NW,323,6.0,6.0,74,0.00,,,0.07,Wunderground v.1.15,2013-06-02 23:30:00,
2013-06-02 16:35:00,62.3,53.9,30.02,WSW,253,6.0,8.0,74,0.00,,,0.07,Wunderground v.1.15,2013-06-02 23:35:00,
2013-06-02 16:45:00,62.1,54.4,30.02,West,280,5.0,12.0,76,0.00,,,0.07,Wunderground v.1.15,2013-06-02 23:45:00,
2013-06-02 16:55:00,61.3,54.0,30.02,WNW,297,5.0,6.0,77,0.00,,,0.07,Wunderground v.1.15,2013-06-02 23:55:00,
2013-06-02 17:00:00,60.9,53.3,30.02,NW,315,7.0,7.0,76,0.00,,,0.07,Wunderground v.1.15,2013-06-03 00:00:00,
2013-06-02 17:10:00,60.2,53.3,30.02,WSW,258,7.0,7.0,78,0.00,,,0.07,Wunderground v.1.15,2013-06-03 00:10:00,
2013-06-02 17:20:00,59.9,53.0,30.02,WNW,303,6.0,6.0,78,0.00,,,0.07,Wunderground v.1.15,2013-06-03 00:20:00,
2013-06-02 17:30:00,60.0,53.5,30.02,WNW,290,5.0,6.0,79,0.00,,,0.07,Wunderground v.1.15,2013-06-03 00:30:00,
2013-06-02 17:40:00,59.9,53.0,30.02,WNW,294,5.0,5.0,78,0.00,,,0.07,Wunderground v.1.15,2013-06-03 00:40:00,
2013-06-02 17:50:00,59.3,52.4,30.02,NW,321,8.0,10.0,78,0.00,,,0.07,Wunderground v.1.15,2013-06-03 00:50:00,
2013-06-02 18:00:00,59.2,52.3,30.02,WNW,287,6.0,12.0,78,0.00,,,0.07,Wunderground v.1.15,2013-06-03 01:00:00,
2013-06-02 18:10:00,58.7,52.5,30.02,WNW,299,7.0,7.0,80,0.00,,,0.07,Wunderground v.1.15,2013-06-03 01:10:00,
2013-06-02 18:20:00,58.8,52.6,30.02,North,355,6.0,6.0,80,0.00,,,0.07,Wunderground v.1.15,2013-06-03 01:20:00,
2013-06-02 18:30:00,58.0,51.9,30.02,West,276,7.0,7.0,80,0.00,,,0.07,Wunderground v.1.15,2013-06-03 01:30:00,
2013-06-02 18:35:00,57.8,51.7,30.02,NNW,332,7.0,7.0,80,0.00,,,0.07,Wunderground v.1.15,2013-06-03 01:35:00,
2013-06-02 18:45:00,56.9,51.5,30.02,WNW,288,6.0,7.0,82,0.00,,,0.07,Wunderground v.1.15,2013-06-03 01:45:00,
2013-06-02 18:55:00,56.2,51.1,30.02,North,360,6.0,7.0,83,0.00,,,0.07,Wunderground v.1.15,2013-06-03 01:55:00,
2013-06-02 19:00:00,56.1,51.0,30.03,NNW,339,6.0,6.0,83,0.00,,,0.07,Wunderground v.1.15,2013-06-03 02:00:00,
2013-06-02 19:10:00,56.2,51.1,30.03,NW,313,5.0,5.0,83,0.00,,,0.07,Wunderground v.1.15,2013-06-03 02:10:00,
2013-06-02 19:20:00,55.7,50.6,30.03,NNW,339,6.0,6.0,83,0.00,,,0.07,Wunderground v.1.15,2013-06-03 02:20:00,
2013-06-02 19:30:00,54.8,50.4,30.03,NNE,15,5.0,5.0,85,0.00,,,0.07,Wunderground v.1.15,2013-06-03 02:30:00,
2013-06-02 19:35:00,54.5,50.4,30.03,NW,324,5.0,5.0,86,0.00,,,0.07,Wunderground v.1.15,2013-06-03 02:35:00,
2013-06-02 19:45:00,54.0,50.2,30.03,NNE,15,4.0,5.0,87,0.00,,,0.07,Wunderground v.1.15,2013-06-03 02:45:00,
2013-06-02 19:55:00,53.8,50.0,30.03,WNW,302,6.0,7.0,87,0.00,,,0.07,Wunderground v.1.15,2013-06-03 02:55:00,
2013-06-02 20:00:00,53.6,49.8,30.03,WNW,282,6.0,8.0,87,0.00,,,0.07,Wunderground v.1.15,2013-06-03 03:00:00,
2013-06-02 20:10:00,53.3,49.5,30.04,NE,36,6.0,6.0,87,0.00,,,0.07,Wunderground v.1.15,2013-06-03 03:10:00,
2013-06-02 20:20:00,53.2,49.7,30.04,North,355,3.0,3.0,88,0.00,,,0.07,Wunderground v.1.15,2013-06-03 03:20:00,
2013-06-02 20:30:00,53.0,49.2,30.04,NW,325,5.0,8.0,87,0.00,,,0.07,Wunderground v.1.15,2013-06-03 03:30:00,
2013-06-02 20:35:00,52.8,49.3,30.05,WNW,295,5.0,8.0,88,0.00,,,0.07,Wunderground v.1.15,2013-06-03 03:35:00,
2013-06-02 20:45:00,52.5,49.4,30.05,NW,305,3.0,6.0,89,0.00,,,0.07,Wunderground v.1.15,2013-06-03 03:45:00,
2013-06-02 20:55:00,52.4,49.3,30.05,West,273,4.0,9.0,89,0.00,,,0.07,Wunderground v.1.15,2013-06-03 03:55:00,
2013-06-02 21:00:00,52.5,49.4,30.05,NNE,17,5.0,5.0,89,0.00,,,0.07,Wunderground v.1.15,2013-06-03 04:00:00,
2013-06-02 21:05:00,52.5,49.4,30.05,SSW,207,4.0,5.0,89,0.00,,,0.07,Wunderground v.1.15,2013-06-03 04:05:00,
2013-06-02 21:10:00,52.4,49.3,30.05,NW,320,3.0,3.0,89,0.00,,,0.07,Wunderground v.1.15,2013-06-03 04:10:00,
2013-06-02 21:15:00,52.4,49.6,30.05,NW,304,2.0,3.0,90,0.00,,,0.07,Wunderground v.1.15,2013-06-03 04:15:00,
2013-06-02 21:25:00,52.4,49.6,30.05,NW,325,2.0,2.0,90,0.00,,,0.07,Wunderground v.1.15,2013-06-03 04:25:00,
2013-06-02 21:30:00,52.3,49.5,30.05,West,271,3.0,3.0,90,0.00,,,0.07,Wunderground v.1.15,2013-06-03 04:30:00,
2013-06-02 21:40:00,52.1,49.3,30.05,WNW,294,3.0,4.0,90,0.00,,,0.07,Wunderground v.1.15,2013-06-03 04:40:00,
2013-06-02 21:50:00,52.1,49.3,30.06,NW,321,2.0,2.0,90,0.00,,,0.07,Wunderground v.1.15,2013-06-03 04:50:00,
2013-06-02 21:55:00,52.0,49.2,30.06,NW,304,2.0,3.0,90,0.00,,,0.07,Wunderground v.1.15,2013-06-03 04:55:00,
2013-06-02 22:00:00,52.1,49.3,30.05,NW,325,2.0,2.0,90,0.00,,,0.07,Wunderground v.1.15,2013-06-03 05:00:00,
2013-06-02 22:10:00,52.0,49.2,30.06,SW,229,2.0,2.0,90,0.00,,,0.07,Wunderground v.1.15,2013-06-03 05:10:00,
2013-06-02 22:15:00,52.1,49.3,30.06,WNW,299,2.0,4.0,90,0.00,,,0.07,Wunderground v.1.15,2013-06-03 05:15:00,
2013-06-02 22:25:00,52.0,49.5,30.06,NW,323,2.0,2.0,91,0.00,,,0.07,Wunderground v.1.15,2013-06-03 05:25:00,
2013-06-02 22:30:00,52.0,49.5,30.06,WNW,303,2.0,5.0,91,0.00,,,0.07,Wunderground v.1.15,2013-06-03 05:30:00,
2013-06-02 22:35:00,52.0,49.5,30.06,WNW,294,2.0,5.0,91,0.00,,,0.07,Wunderground v.1.15,2013-06-03 05:35:00,
2013-06-02 22:45:00,51.9,49.4,30.06,NW,313,1.0,2.0,91,0.00,,,0.07,Wunderground v.1.15,2013-06-03 05:45:00,
2013-06-02 22:55:00,51.9,49.4,30.06,NNW,335,1.0,1.0,91,0.00,,,0.07,Wunderground v.1.15,2013-06-03 05:55:00,
2013-06-02 23:00:00,51.9,49.4,30.06,WNW,299,1.0,1.0,91,0.00,,,0.07,Wunderground v.1.15,2013-06-03 06:00:00,
2013-06-02 23:10:00,51.9,49.6,30.06,NW,307,1.0,1.0,92,0.00,,,0.07,Wunderground v.1.15,2013-06-03 06:10:00,
2013-06-02 23:20:00,52.0,49.7,30.05,WNW,296,0.0,0.0,92,0.00,,,0.07,Wunderground v.1.15,2013-06-03 06:20:00,
2013-06-02 23:30:00,52.0,49.7,30.06,NW,322,1.0,1.0,92,0.00,,,0.07,Wunderground v.1.15,2013-06-03 06:30:00,
2013-06-02 23:35:00,52.0,49.7,30.05,NW,312,1.0,1.0,92,0.00,,,0.07,Wunderground v.1.15,2013-06-03 06:35:00,
2013-06-02 23:45:00,52.0,49.5,30.05,WNW,287,1.0,1.0,91,0.00,,,0.07,Wunderground v.1.15,2013-06-03 06:45:00,
2013-06-02 23:55:00,52.0,49.7,30.05,West,267,1.0,1.0,92,0.00,,,0.07,Wunderground v.1.15,2013-06-03 06:55:00,